Weather in Ozerny

Russia / Mari El Republic     56°34′42″N   47°07′24″E
temp.,
°C
wind,
m/s
gust,
m/s
humid.,
%
clouds,
%
prec.,
mm/h
press.,
hPa
HPBL,
m
21 january, fri
fri2100:00−8ssw51585100 0.0 1013526
03:00−10s41388100 0.0 1013415
06:00−12s41390100 0.0 1014431
09:00−12s41589100 0.0 1014451
12:00−9s41487100 0.0 1015518
15:00−8sse41286100 0.0 1014538
18:00−10se51490100 0.0 1014458
21:00−9se51589100 0.0 1014537
22 january, sat
sat2200:00−9se61587100 0.0 1013585
03:00−9se51393100 0.5 1013640
06:00−8se51194100 0.5 1014499
09:00−9se41093100 0.7 1017367
12:00−7se4993100 0.0 1018400
15:00−7ese41095100 0.4 1018486
18:00−6se41194100 1.2 1018622
21:00−6ese41196100 1.8 1019586
23 january, sun
sun2300:00−4se41196100 1.8 1019614
03:00−5sse41094100 2.5 1021473
06:00−7sse2797100 0.2 1023174
09:00−9sse259899 0.3 102699
12:00−5s2395100 0.1 1028234
15:00−5s1296100 0.1 1030122
18:00−9se1199100 0.0 103210
21:00−12ese00100100 0.1 103410
24 january, mon
mon2400:00−14nne11100100 0.0 10369
03:00−15e11100100 0.1 10379
06:00−15ene1110098 0.0 10379
09:00−15ne11100100 0.1 103914
12:00−7se129595 0.0 1038173
15:00−7e119897 0.1 103810
18:00−13se1110097 0.0 10389
21:00−17se229958 0.0 103811
25 january, tue
tue2500:00−19se2110023 0.0 103714
03:00−20se2210032 0.0 103632
06:00−19sse2310061 0.0 103449
09:00−18sse25986 0.0 103378
12:00−10s36865 0.0 1031224
15:00−10s269067 0.0 1029185
18:00−14sse2694100 0.0 102892
21:00−15sse2694100 0.0 102891